Weather in Ust-Orot

Russia / Republic of Buryatia     51°58′49″N   109°46′46″E
temp.,
°C
wind,
m/s
gust,
m/s
humid.,
%
clouds,
%
prec.,
mm/h
press.,
hPa
HPBL,
m
15 may, sat
sat1523:00+3wsw22510 0.0 101712
02:00+1w21600 0.0 101812
05:000sw11640 0.0 101811
08:00+8s12400 0.0 1016342
11:00+14w58211 0.0 10121815
14:00+16w68199 0.0 10112630
17:00+15wnw7102453 0.0 10102774
20:00+10wnw6113032 0.0 1013810
16 may, sun
sun1623:00+7w51241100 0.0 1015654
02:00+5wnw5126687 0.0 1015702
05:00+4w4116298 0.0 1015404
08:00+10w7116192 0.0 10121078
11:00+15w8134085 0.0 10091979
14:00+15nw101549100 0.0 10101865
17:00+13wnw7125455 0.1 10091513
20:00+11wnw5106045 0.1 1009837
17 may, mon
mon1723:00+8wsw387834 0.0 1008214
02:00+5sw2291100 0.0 100624
05:00+7nnw1287100 0.3 100459
08:00+11wnw51067100 0.4 10021188
11:00+12wnw695256 0.0 10031442
14:00+14nw8104299 0.0 10031793
17:00+11nw71047100 0.0 10051479
20:00+7wnw485199 0.0 1007594
18 may, tue
tue1823:00+4w4116499 0.0 1010364
02:00+3w41076100 0.0 1011366
05:00+1wsw368163 0.0 1012145
08:00+7w584952 0.0 10121392
11:00+9w683699 0.0 10092296
14:00+11wnw683499 0.0 10072302
17:00+11w683961 0.0 10052006
20:00+9wsw3651100 0.0 1004183
19 may, wed
wed1923:00+5sw2269100 0.0 100430
02:00+5wnw1171100 0.0 100210
05:00+4sse1190100 1.9 100163
08:00+6wsw2483100 2.9 1001526
11:00+8wnw456957 0.1 10021093
14:00+10w575386 0.2 10011435
17:00+13w56399 0.0 10001861
20:00+9wsw225562 0.0 99924